Cut Bank, MT

1:36 AM MDT on May 21, 2018 (GMT -0600)
Cut Bank Municipal

Weather History for KCTB - May, 2014

Change the Weather History Date:

Wednesday, May 7, 2014

  Actual Average Record
Temperature  
Mean Temperature 40 °F 47 °F  
Max Temperature 49 °F 60 °F 84 °F (1992)
Min Temperature 30 °F 35 °F 18 °F (1914)
Degree Days  
Heating Degree Days 25 18  
Month to date heating degree days 153 131  
Since 1 July heating degree days 8288 7951  
Cooling Degree Days 0 0  
Month to date cooling degree days 0 0  
Year to date cooling degree days 0 0  
Moisture  
Dew Point 24 °F    
Average Humidity 60    
Maximum Humidity 85    
Minimum Humidity 34    
Precipitation  
Precipitation T in 0.05 in 1.33 in (1975)
Month to date precipitation 0.23 0.27  
Year to date precipitation 3.73 1.96  
Snow  
Snow 0.00 in - - ()
Snow Depth 0.00 in    
Sea Level Pressure  
Sea Level Pressure 30.02 in    
Wind  
Wind Speed 7 mph (SE)    
Max Wind Speed 17 mph    
Max Gust Speed 23 mph    
Visibility 10 miles    
Events Snow    
T = Trace of Precipitation, MM = Missing Value Source: NWS Daily Summary

Daily Weather History Graph

Daily Weather History Graph

Search for Another Location

Airport or City:

Astronomy

May. 07, 2014 Rise Set
Actual Time 5:59 AM MDT 8:53 PM MDT
Civil Twilight 5:23 AM MDT 9:29 PM MDT
Nautical Twilight 4:37 AM MDT 10:16 PM MDT
Astronomical Twilight 3:40 AM MDT 11:13 PM MDT
Moon 1:27 PM MDT (5/7) 2:36 AM MDT (5/7)
Length of Visible Light 16h 05m
Length of Day
14h 53m
First Quarter, 56% of the Moon is Illuminated
May 7
First Quarter
May 14
Full
May 21
Last Quarter
May 28
New
Jun 5
First Quarter

Hourly Weather History & Observations

Time (MDT) Temp. Windchill Dew Point Humidity Pressure Visibility Wind Dir Wind Speed Gust Speed Precip Events Conditions
12:56 AM 30.9 °F 26.2 °F 25.0 °F 79% 30.12 in 10.0 mi North 4.6 mph - N/A   Overcast
1:56 AM 30.9 °F 25.2 °F 26.1 °F 82% 30.12 in 10.0 mi NNW 5.8 mph - N/A   Overcast
2:56 AM 30.9 °F 25.2 °F 26.1 °F 82% 30.09 in 10.0 mi North 5.8 mph - N/A   Overcast
3:56 AM 30.9 °F 25.2 °F 25.0 °F 79% 30.09 in 10.0 mi NNE 5.8 mph - N/A   Overcast
4:56 AM 30.0 °F 25.2 °F 26.1 °F 85% 30.09 in 10.0 mi NNE 4.6 mph - N/A   Overcast
5:56 AM 30.9 °F - 26.1 °F 82% 30.08 in 10.0 mi Calm Calm - N/A   Overcast
6:56 AM 30.0 °F 24.1 °F 23.0 °F 75% 30.09 in 4.0 mi SE 5.8 mph - 0.00 in Snow Light Snow
7:56 AM 30.9 °F 24.3 °F 24.1 °F 76% 30.09 in 10.0 mi SE 6.9 mph - 0.00 in   Overcast
8:56 AM 32.0 °F 24.2 °F 23.0 °F 69% 30.08 in 10.0 mi SE 9.2 mph - N/A   Overcast
9:56 AM 34.0 °F 26.0 °F 21.9 °F 61% 30.07 in 10.0 mi SE 10.4 mph - N/A   Overcast
10:31 AM 34.0 °F 25.0 °F 23.0 °F 64% 29.98 in 10.0 mi SSE 12.7 mph - N/A   Overcast
10:56 AM 35.1 °F 26.9 °F 23.0 °F 61% 30.06 in 10.0 mi SSE 11.5 mph - N/A   Overcast
11:44 AM 37.0 °F 29.3 °F 23.0 °F 57% 29.97 in 10.0 mi SE 11.5 mph - N/A   Overcast
11:56 AM 37.9 °F 29.6 °F 23.0 °F 55% 30.04 in 10.0 mi South 13.8 mph - N/A   Overcast
12:56 PM 41.0 °F 34.3 °F 23.0 °F 49% 30.01 in 10.0 mi South 11.5 mph - N/A   Mostly Cloudy
1:56 PM 42.1 °F 37.1 °F 23.0 °F 47% 29.98 in 10.0 mi South 8.1 mph - N/A   Overcast
2:56 PM 45.0 °F 40.1 °F 24.1 °F 44% 29.96 in 10.0 mi South 9.2 mph - N/A   Overcast
3:56 PM 48.0 °F - 24.1 °F 39% 29.94 in 10.0 mi North - - N/A   Scattered Clouds
4:56 PM 46.9 °F - 21.0 °F 36% 29.93 in 10.0 mi West 5.8 mph - N/A   Mostly Cloudy
5:56 PM 48.0 °F - 21.0 °F 34% 29.92 in 10.0 mi SSW 5.8 mph - N/A   Partly Cloudy
6:56 PM 48.0 °F - 21.9 °F 36% 29.93 in 10.0 mi SSE 5.8 mph - N/A   Scattered Clouds
7:56 PM 46.0 °F - 21.0 °F 37% 29.93 in 10.0 mi Calm Calm - N/A   Clear
8:56 PM 42.1 °F 37.7 °F 23.0 °F 47% 29.95 in 10.0 mi SE 6.9 mph - N/A   Clear
9:56 PM 39.0 °F 32.8 °F 25.0 °F 57% 29.96 in 10.0 mi SE 9.2 mph - N/A   Mostly Cloudy
10:56 PM 36.0 °F 30.3 °F 25.0 °F 64% 29.96 in 10.0 mi SE 6.9 mph - N/A   Clear
11:56 PM 36.0 °F 30.3 °F 24.1 °F 62% 29.95 in 10.0 mi SSE 6.9 mph - N/A   Clear